Regional Weather Roundup
Issued by NWS Raleigh/Durham, NC

Home | Current Version | Previous Version | Text Only | Print | Product List | Glossary On
Versions: 1 2 3 4 5 6 7 8 9 10 11 12 13 14 15 16 17 18 19 20 21 22 23 24 25 26 27 28 29 30 31 32 33 34 35 36 37 38 39 40 41 42 43 44 45 46 47 48 49 50
000
ASUS42 KRAH 290310
RWRRAH
NORTH CAROLINA WEATHER ROUNDUP
NATIONAL WEATHER SERVICE RALEIGH NC
1100 PM EDT FRI AUG 28 2015

NOTE: "FAIR" INDICATES FEW OR NO CLOUDS BELOW 12,000 FEET WITH NO
SIGNIFICANT WEATHER AND/OR OBSTRUCTIONS TO VISIBILITY.

NCZ001-053-055-056-065-067-290400-
WESTERN NORTH CAROLINA

CITY           SKY/WX    TMP DP  RH WIND       PRES   REMARKS
ASHEVILLE      MOCLDY    66  59  78 CALM      30.26R
JEFFERSON      PTCLDY    64  55  75 CALM      30.31R
MORGANTON      CLOUDY    66  61  84 CALM      30.26S
HICKORY        CLOUDY    70  63  78 CALM      30.21S
RUTHERFORDTON  MOCLDY    70  60  69 CALM      30.22R
MOUNT AIRY     MOCLDY    68  62  82 CALM      30.24S
BOONE          PTCLDY    58  58  99 CALM      30.32S
$$

NCZ021-022-025-041-071-084-088-290400-
CENTRAL NORTH CAROLINA

CITY           SKY/WX    TMP DP  RH WIND       PRES   REMARKS
CHARLOTTE      MOCLDY    74  56  53 S6        30.20R
GREENSBORO     MOCLDY    70  59  68 CALM      30.20S
WINSTON-SALEM  MOCLDY    69  61  75 CALM      30.22R
RALEIGH-DURHAM MOCLDY    74  60  61 SE6       30.20R
FORT BRAGG     CLEAR     70  63  78 CALM      30.17S
FAYETTEVILLE   CLEAR     69  63  81 E5        30.17S
BURLINGTON     PTCLDY    66  60  81 CALM      30.19S
LAURINBURG     CLEAR     68  61  78 CALM      30.18S
$$

NCZ011-015-027-028-043-044-047-080-103-290400-
NORTHEASTERN NORTH CAROLINA

CITY           SKY/WX    TMP DP  RH WIND       PRES   REMARKS
ROCKY MT-WILSO MOCLDY    68  61  78 CALM      30.20R
GREENVILLE     MOCLDY    68  63  83 CALM      30.20S
WASHINGTON     PTCLDY    67  63  85 CALM      30.19S
ELIZABETH CITY CLEAR     70  63  78 E5        30.19S
MANTEO         PTCLDY    73  65  75 NE9       30.18F
CAPE HATTERAS  PTCLDY    76  66  71 NE8G17    30.16S
$$

NCZ078-087-090-091-093-098-101-290400-
SOUTHEASTERN NORTH CAROLINA

CITY           SKY/WX    TMP DP  RH WIND       PRES   REMARKS
LUMBERTON      CLEAR     67  63  87 CALM      30.17R
GOLDSBORO      CLEAR     67  62  83 E2        30.17S
KINSTON        CLEAR     68  62  81 CALM      30.20R
KENANSVILLE      N/A     67  61  81 CALM      30.19S
NEW BERN       PTCLDY    71  63  75 E5        30.19R
CHERRY POINT   CLEAR     73  65  75 NE9       30.18R
BEAUFORT       CLEAR     72  67  84 NE7       30.16R
JACKSONVILLE   CLEAR     72  63  73 N5        30.17R
WILMINGTON     CLEAR     72  66  81 NE9       30.15F
$$




USA.gov is the U.S. government's official web portal to all federal, state and local government web resources and services.